IRIDIUM 33 DEB, 35809

Orbit data source: Space-Track

IRIDIUM 33 DEB, 35809 is space debris in LEO originally from a launch on Sun, 14 Sep 1997 UTC launched from the Tyuratam Missile And Space Complex (TTMTR). The debris from Iridium 33, an American commercial communications satellite, has been tracked extensively since its accidental collision with the defunct Russian satellite Cosmos 2251 in 2009. This event, occurring at high speed in low Earth orbit (LEO), generated thousands of pieces of space debris, significantly increasing the risk of further collisions. The Iridium 33 debris cloud has impacted space traffic management and orbital debris mitigation strategies, making it a subject of ongoing study in space situational awareness.

Loading next visibility...
Identifier
35809, 1997-051ST
Orbit
LEO
Country
Flag of USUS
Related business
Manufacturer
Unknown
Mission
Spacecraft
Bus & Motor
Unknown
Mass
Unknown
Launch date (UTC)
1997-09-14 (28 years ago)
Launch vehicle
Unknown
Launch site
Tyuratam Missile And Space Complex (TTMTR)
Object type
Payload
Rocket body
Debris
Shape & HBR
Unknown shape, 0.1 m
Radar Cross Section
Small (<0.1 m²)

Expand to show TLE details & history
Last TLE update: 2 days ago

TLE from 2 days ago
0 IRIDIUM 33 DEB
1 35809U 97051ST  26036.48880661  .00018362  00000-0  25783-2 0  9992
2 35809  86.3280 310.3948 0015175  59.3850 300.8864 14.77252405876154
Epoch: 2026-02-05T11:43Z
TLE epoch observation values (Epoch: 2026-02-05T11:43:52.891Z)
Latitude
0.00002°
Longitude
-1.21589°
Altitude
635.666 km
Speed
7.543 km/s
True Right ascension
20h 41m 34s
True Declination
0° 00' 00"
Sunlit
Object was in daylight at epoch
Visualization orbit readout
Latitude
Unknown
Longitude
Unknown
Altitude
Unknown
Speed
Unknown
Apparent Right ascension
Unknown
Apparent Declination
Unknown
Sunlit
N/A
Visualization observer readout
Local Sidereal Time
04:55:20
Azimuth
Unknown
Elevation
Unknown
Doppler factor
Unknown
Orbital elements
Apogee altitude
645.558 km
Perigee altitude
624.273 km
Semi-major axis
7,013.053 km
Eccentricity
0.00152
Inclination
86.328°
RAAN
310.3948°
Arg. of periapsis
59.385°
True anomaly
300.73702°
Mean anomaly
300.8864°
Eccentric anomaly
300.81173°
Mean motion
3.69558 °/min
Orbital period
97.41 mins
BSTAR
0.0025783
Loading maneuver chart data...
Computing Atmospheric mass density...

Documentation

Showing up to 5 results
|